Theta_e
314 315 318 320 323 325 327 328 326 325 325 323 320 318 327 337 325 320 342 350 326 329 356 358 348 346 347 350 350 348 349 349 349 350 351 351 350 350 351 351 353 354 353 355 356 354 353 351 352 355 355 356 357 358 358 359 359 360 359 359 358 358 358 358 358 358 358 358 358 358 358 357 358 358 358 359 359 359 358 357 357 358 359 359 359 358 359
314 315 319 322 323 326 327 328 330 329 326 324 323 323 329 336 333 339 360 356 335 337 350 350 348 348 350 353 350 347 348 349 348 349 349 348 347 349 349 350 352 353 353 354 353 355 354 351 352 355 356 356 358 358 359 359 361 361 360 360 360 359 359 359 359 358 358 359 359 358 358 358 358 359 358 359 359 358 358 358 357 357 358 358 359 358 358
315 317 321 322 322 324 325 328 332 333 329 326 324 325 328 330 329 340 357 351 342 345 348 346 349 352 354 355 352 349 349 349 348 347 347 348 348 347 348 349 349 351 352 353 353 355 354 352 351 355 356 359 358 359 360 359 361 362 361 362 361 360 360 360 359 359 359 359 359 358 358 358 358 358 359 358 359 359 359 358 357 356 356 357 357 357 358
316 318 319 320 322 325 327 329 333 334 331 325 324 325 326 329 329 335 343 341 342 347 346 344 348 352 352 350 350 352 350 347 347 348 345 346 346 347 347 348 349 351 353 354 354 353 352 351 351 354 357 359 359 360 361 360 361 363 364 364 363 362 362 361 360 360 359 359 359 359 358 359 358 358 358 358 359 358 358 358 357 357 356 356 356 357 357
318 317 315 319 324 327 329 328 329 332 331 332 335 331 329 336 336 333 335 341 352 355 345 342 344 346 347 346 344 349 352 351 349 346 347 347 346 346 348 348 349 350 352 354 355 353 351 351 353 354 356 359 360 361 361 362 362 363 364 365 364 364 364 363 362 361 360 360 360 359 359 359 359 359 358 358 358 358 357 357 357 356 357 356 356 355 356
317 315 316 324 326 327 331 331 329 331 335 342 347 344 342 345 343 339 340 349 359 353 340 339 341 340 342 341 337 341 351 355 352 347 346 347 346 347 348 348 349 350 352 355 354 352 353 354 354 355 357 358 360 361 361 362 362 363 365 365 366 366 365 365 364 362 362 361 360 359 359 359 359 359 358 358 358 357 357 356 356 355 356 356 356 355 355
317 318 326 335 332 330 335 332 328 332 336 343 349 347 346 346 344 348 352 352 350 342 337 338 338 337 342 346 347 346 345 350 357 358 355 355 353 351 351 351 352 354 356 357 355 352 354 356 357 359 359 361 361 362 362 363 363 363 364 365 366 367 367 366 366 364 363 362 361 361 360 359 359 359 359 358 358 357 357 356 355 355 355 356 356 355 355
320 323 331 338 334 333 335 331 329 332 332 336 345 347 345 344 343 345 348 349 348 342 337 336 338 344 352 359 366 364 352 345 348 353 357 360 358 356 357 358 363 364 359 356 354 353 354 357 359 361 362 363 364 364 364 364 363 363 363 364 366 367 367 367 367 366 365 363 362 361 360 360 360 360 359 359 358 358 357 356 356 355 354 355 355 355 355
323 321 324 333 338 340 339 333 329 330 330 333 343 349 345 342 342 343 345 349 351 349 343 338 341 354 367 371 371 367 361 357 353 353 358 362 364 366 364 361 362 362 359 356 356 356 356 357 359 360 362 364 366 365 365 364 364 364 364 363 365 366 367 367 367 367 366 364 363 362 361 361 360 360 360 360 359 358 357 357 356 355 355 355 355 356 357
322 319 321 333 345 347 341 332 327 327 330 331 336 347 346 342 339 341 343 346 349 354 356 351 351 365 377 378 375 368 363 364 364 364 366 367 370 375 374 366 360 359 362 363 361 360 359 360 360 360 363 364 366 366 366 365 365 364 364 363 364 365 366 367 367 367 367 366 365 364 362 361 361 360 360 359 360 359 358 358 357 356 356 355 355 356 357
319 318 319 328 341 344 335 329 328 328 330 330 334 346 348 343 338 340 344 346 346 350 355 357 361 372 377 378 374 366 361 360 360 363 366 366 367 368 369 368 364 360 361 361 360 360 360 361 361 362 362 364 365 365 365 366 365 365 364 365 364 364 366 366 366 367 367 367 366 364 364 362 362 361 360 360 360 360 359 358 357 357 356 356 356 356 357
317 319 320 327 341 342 331 327 329 329 329 332 341 349 348 341 337 340 342 345 346 346 349 352 358 365 373 375 369 362 360 361 360 362 364 366 368 368 366 366 364 363 363 363 363 365 365 364 363 363 363 363 364 365 365 365 365 365 364 365 364 364 364 365 365 366 367 367 366 366 365 363 363 362 361 360 360 359 360 359 358 358 357 357 357 356 356
316 319 320 325 336 336 329 328 329 328 331 341 349 351 346 338 337 340 341 344 345 344 346 349 351 355 360 365 363 361 363 364 362 361 362 362 365 366 367 367 366 363 364 364 365 366 367 367 365 365 364 362 361 363 363 362 363 364 365 365 364 364 364 364 365 366 366 367 367 366 365 364 364 364 362 361 360 360 360 360 359 358 358 357 357 357 357
315 316 318 324 333 331 328 329 328 329 338 347 347 344 339 334 334 336 337 342 344 344 344 346 347 348 350 354 360 362 362 363 363 361 361 361 361 362 364 366 364 362 362 364 365 366 366 366 366 365 365 363 362 362 361 360 362 362 363 364 364 364 364 365 365 365 367 366 366 367 366 365 365 364 364 362 361 360 361 360 359 359 358 358 357 358 358
315 316 320 328 333 329 327 331 334 335 340 345 343 338 333 331 331 332 336 340 341 343 344 343 344 346 347 349 355 359 361 362 361 360 360 361 361 360 361 364 364 362 361 362 363 364 366 366 366 365 365 364 364 364 363 362 362 360 361 362 362 363 365 366 365 365 366 367 367 367 366 366 365 365 364 363 362 362 361 361 361 360 360 360 358 359 359
317 319 323 327 329 327 328 334 338 334 333 336 337 334 331 329 329 329 334 337 338 340 343 342 343 345 346 347 350 355 359 359 360 360 360 360 361 360 359 361 362 360 360 361 362 362 363 365 365 367 367 366 364 364 364 363 364 363 361 359 360 362 364 366 367 366 366 366 367 367 366 366 366 366 366 365 365 363 362 361 362 362 362 361 361 360 361
318 320 321 322 323 325 328 331 332 330 328 328 328 329 329 329 328 329 331 334 336 336 339 342 343 343 344 345 346 350 354 356 358 360 359 358 358 358 358 359 359 359 359 360 360 360 361 363 364 365 367 368 367 366 365 364 365 366 363 359 360 362 364 366 367 368 367 368 368 367 367 367 367 367 367 367 366 365 364 364 364 364 364 364 363 362 362
319 320 319 318 319 322 324 325 326 327 327 326 325 328 329 327 326 328 329 331 332 333 335 339 341 341 342 344 345 346 350 354 357 358 359 359 357 357 358 359 358 359 359 359 358 359 359 360 362 364 365 367 368 367 368 367 367 367 366 362 360 361 364 366 367 369 370 369 369 369 369 368 369 368 369 368 368 367 366 365 366 366 365 365 365 364 363
319 320 318 316 317 320 321 322 323 324 325 325 325 327 328 325 325 329 330 328 328 330 332 335 340 341 341 342 345 346 348 353 358 359 360 361 358 356 357 359 357 357 356 356 356 356 357 358 360 362 364 366 366 367 369 370 369 368 366 364 361 361 364 366 368 369 370 371 371 371 371 371 371 370 370 371 370 369 369 368 367 367 366 367 367 366 365
318 318 317 316 319 321 320 320 321 321 323 324 323 323 324 324 325 329 331 328 327 327 329 332 337 340 340 341 344 346 348 352 357 359 361 362 360 356 356 357 358 356 354 354 354 353 355 356 357 360 363 364 365 366 369 371 371 371 368 363 362 363 364 367 367 369 371 372 373 372 372 371 371 371 371 371 371 370 370 369 369 369 368 368 367 367 366
315 315 317 319 321 320 318 320 321 319 320 322 323 322 323 324 325 326 327 328 328 327 328 331 336 339 340 340 343 345 348 351 355 358 360 358 355 355 355 356 357 356 354 354 354 354 354 355 356 359 361 361 363 365 367 369 372 371 368 365 364 365 366 368 369 370 371 373 372 370 367 365 365 365 367 369 370 371 371 371 371 369 370 369 369 368 366
314 315 318 319 318 317 319 321 322 322 320 322 323 323 323 324 324 323 324 327 328 328 328 330 334 338 340 340 342 344 347 350 352 355 355 351 350 353 355 355 355 355 354 355 353 353 354 354 354 356 358 359 361 364 366 368 370 370 369 367 366 367 368 369 369 370 372 370 367 364 361 358 356 354 354 359 365 366 369 370 370 370 370 370 369 368 364
314 315 316 316 316 319 322 322 322 323 323 323 323 323 323 323 324 324 324 326 329 329 328 328 331 337 339 340 341 344 345 345 346 348 350 350 350 353 354 354 354 353 354 353 353 353 353 353 353 355 357 358 359 361 365 368 368 370 370 369 367 368 369 369 369 370 368 363 359 356 355 355 355 351 348 349 354 358 362 366 368 369 370 367 366 367 364
312 312 313 315 317 319 319 319 320 323 325 324 322 322 322 323 324 323 323 326 329 330 329 329 331 335 338 339 340 343 345 343 343 345 348 348 350 352 353 354 354 353 352 352 352 352 353 353 354 354 355 356 357 359 364 367 367 368 369 368 367 367 367 366 366 364 361 356 352 350 349 349 351 351 346 341 339 343 349 355 358 361 363 362 360 358 358
311 312 313 314 315 316 316 318 321 322 323 322 321 322 323 323 324 323 324 327 329 329 329 331 331 332 335 337 338 341 342 342 342 344 346 346 348 351 353 353 353 352 352 351 352 353 353 353 353 354 354 355 356 359 362 364 366 366 366 366 365 365 363 361 359 356 353 350 348 347 346 344 345 347 343 337 334 334 336 340 343 345 346 347 347 344 342
311 311 312 312 313 314 316 319 320 321 320 319 320 322 322 322 323 323 323 326 328 327 328 330 330 330 333 336 336 338 341 342 342 343 343 344 347 349 351 352 352 352 352 352 353 352 352 352 352 352 353 354 355 357 359 360 362 362 363 363 363 362 360 357 353 349 348 346 344 344 343 342 342 341 339 337 336 334 334 334 335 336 335 336 336 335 334
309 310 311 312 312 313 317 319 319 318 318 319 320 320 318 316 317 318 319 322 324 324 324 326 328 330 333 334 335 337 340 341 342 342 342 343 347 348 349 350 351 351 352 352 351 350 350 351 351 350 351 352 353 354 355 355 357 359 359 359 358 356 355 354 350 347 345 343 342 341 340 340 339 338 336 336 336 335 335 334 334 334 334 335 335 334 333
309 309 310 311 311 312 315 317 316 315 316 317 318 317 316 315 316 317 319 321 323 324 324 324 325 330 335 335 335 338 341 342 344 344 342 343 346 347 348 349 350 351 352 351 350 350 350 349 349 350 350 350 351 352 353 353 353 354 354 355 354 352 350 349 348 345 343 341 340 339 339 338 338 337 337 337 336 335 335 334 334 334 335 335 336 336 335
309 309 309 310 310 310 312 313 313 313 316 317 316 316 317 318 319 319 319 320 323 326 326 324 325 331 335 335 336 340 343 344 345 345 343 344 346 347 348 348 348 350 350 350 349 349 349 350 350 349 349 349 350 350 351 350 349 349 350 350 350 349 348 347 346 344 342 340 339 339 339 339 339 339 338 337 336 336 335 335 335 335 335 335 335 335 335
310 309 310 310 310 310 311 311 312 314 316 317 318 318 317 318 319 321 320 320 322 326 327 327 330 334 336 335 335 338 340 342 344 344 344 345 346 347 347 348 348 348 348 348 347 347 348 348 349 349 349 349 349 349 350 349 348 347 347 347 347 347 346 346 344 343 341 341 339 340 340 340 340 340 339 338 337 337 336 336 336 335 335 335 336 335 335
312 311 310 310 310 311 311 311 313 315 317 318 318 319 318 318 319 321 321 322 325 329 330 331 332 334 333 333 335 337 338 339 341 341 341 341 341 342 343 344 345 345 344 344 345 345 346 346 347 348 348 348 348 349 349 348 346 345 345 344 344 344 344 344 343 342 341 341 340 340 341 341 340 339 339 339 338 337 336 336 335 335 335 336 336 336 336
313 312 311 311 311 311 311 312 313 315 317 318 318 319 320 320 319 320 322 326 329 330 330 329 328 329 330 331 334 336 335 333 333 334 335 335 335 335 337 338 339 340 340 339 341 342 344 345 346 346 346 347 347 347 348 347 345 344 343 342 342 342 342 342 341 341 340 340 341 340 340 340 339 339 339 339 338 337 336 335 335 335 336 336 336 337 336
313 312 313 312 312 312 312 313 314 316 317 318 319 320 321 321 322 323 326 328 327 326 325 324 324 325 326 327 328 329 329 327 326 327 328 328 328 329 331 333 334 335 335 335 336 338 340 343 345 345 344 344 345 345 345 345 343 342 341 340 340 339 339 339 339 339 339 339 339 339 338 338 338 338 337 337 337 336 335 335 334 334 334 335 336 336 336
315 315 315 313 312 313 313 314 316 318 319 320 322 322 321 323 325 325 325 323 322 321 321 321 321 321 321 321 322 322 323 322 322 322 322 322 323 323 325 328 330 330 330 330 331 333 335 339 343 344 342 342 342 342 342 341 339 338 338 337 337 336 337 337 337 337 336 336 335 335 335 335 335 335 336 336 336 335 335 334 333 333 333 333 334 335 335
314 316 317 316 314 315 316 317 318 319 319 320 321 321 320 321 322 322 321 320 320 319 319 318 318 318 318 317 318 318 318 318 318 318 318 318 319 320 321 323 324 325 325 326 326 328 331 335 340 342 342 341 341 340 339 338 337 335 334 333 333 333 333 333 333 332 332 331 331 331 330 330 330 331 332 332 332 331 330 330 329 329 330 331 333 333 334
311 313 316 317 317 317 317 318 318 318 317 317 317 316 316 317 318 318 318 317 317 317 316 316 316 316 315 316 316 316 316 316 316 316 316 317 317 318 319 319 320 321 322 321 322 324 327 331 335 338 339 339 338 337 336 336 334 332 331 330 330 329 329 328 328 328 327 327 327 326 326 326 326 326 327 327 326 326 325 325 324 324 325 326 328 330 331
310 312 314 316 317 316 316 316 315 315 314 314 314 313 313 313 314 314 315 315 315 315 315 315 314 314 314 315 315 315 315 315 314 314 315 315 315 316 316 317 318 318 318 318 319 321 323 326 329 333 336 336 335 334 333 333 331 330 329 328 327 326 326 325 325 324 324 323 323 323 323 322 322 322 322 322 322 321 321 321 320 321 321 322 324 325 325
309 310 312 313 314 315 315 315 314 313 313 312 312 312 312 311 311 311 312 312 312 313 313 313 313 313 313 313 313 313 313 313 313 313 313 314 314 314 314 315 315 316 315 316 316 318 320 322 325 327 330 332 332 332 331 330 329 328 326 325 324 324 323 322 322 321 321 320 320 320 319 319 318 318 318 318 318 318 317 317 317 317 317 319 320 320 320
309 309 310 310 311 312 313 313 314 314 313 313 312 311 311 311 310 310 310 310 311 311 311 312 312 312 312 313 312 312 312 313 313 313 313 313 313 313 313 313 314 314 314 314 314 315 316 318 320 322 323 325 327 328 327 328 328 326 324 323 322 321 320 320 319 319 318 318 317 317 316 315 315 314 314 314 314 314 314 314 314 314 314 315 316 316 316
310 310 309 309 310 311 311 312 312 313 313 313 313 312 311 311 310 310 310 310 310 310 310 310 311 311 311 312 312 312 312 312 312 312 312 312 313 313 313 313 313 313 313 314 314 314 313 314 315 316 318 320 322 323 323 324 324 323 322 320 319 318 317 317 316 316 316 315 314 314 313 313 312 311 311 311 311 311 310 311 311 311 311 312 312 312 312
311 311 310 309 309 309 310 311 311 311 311 312 313 313 313 312 311 311 311 311 310 310 309 309 309 310 310 310 310 311 311 311 311 311 311 312 312 312 312 312 312 312 312 313 313 313 313 312 312 312 313 315 316 317 317 318 318 318 318 317 316 315 314 314 313 313 312 312 311 311 310 310 310 309 309 308 308 308 308 308 308 308 308 309 309 309 309
310 310 310 310 309 309 308 309 310 311 311 311 311 311 312 312 312 312 313 313 312 312 310 310 309 309 309 309 309 310 310 310 310 311 311 311 311 311 312 312 312 311 311 310 311 312 312 311 311 311 311 311 312 312 313 313 314 314 314 314 313 313 312 311 311 310 310 310 309 309 308 308 308 307 307 306 306 306 306 305 305 305 306 306 306 306 306
310 310 310 310 310 310 309 309 309 309 310 310 310 310 310 311 311 312 312 313 313 313 312 311 310 309 308 308 308 309 309 310 310 310 310 310 310 310 311 311 311 310 310 310 310 310 310 310 310 310 309 309 309 309 309 310 310 310 310 311 311 310 310 309 309 308 308 307 307 307 306 306 305 305 304 304 304 304 303 303 303 303 303 303 303 303 304
311 311 310 310 309 310 309 309 309 309 309 309 309 308 309 309 310 310 311 311 312 312 312 312 312 311 310 309 308 308 308 308 308 309 309 309 310 310 310 310 310 309 309 308 309 309 309 309 309 308 308 308 308 308 308 308 308 308 308 308 308 307 307 307 307 306 306 305 305 305 305 304 303 303 302 302 302 301 301 301 301 301 301 301 301 301 301
310 311 310 310 309 309 308 308 308 309 309 308 308 307 307 307 308 309 309 310 310 310 311 311 311 311 311 310 309 308 307 307 307 307 308 309 310 310 308 308 308 309 308 308 308 308 308 308 308 308 307 307 307 307 307 307 307 307 306 306 305 305 305 304 304 304 303 303 303 303 302 302 302 301 301 301 300 300 300 299 299 298 298 298 298 298 298
309 309 309 309 309 309 308 307 307 307 307 307 308 307 307 306 306 307 307 308 308 308 309 309 310 310 310 311 310 310 309 309 308 308 308 309 309 309 308 307 307 307 307 307 307 307 307 307 307 307 307 307 307 307 307 307 307 307 306 306 306 305 305 304 303 303 303 303 302 302 302 302 301 301 301 300 300 299 299 298 298 298 297 297 296 296 295
308 307 307 307 308 308 307 307 306 306 306 307 307 307 306 305 305 305 305 306 307 307 307 307 308 308 309 310 310 310 310 310 310 310 310 309 309 309 309 308 308 308 308 308 307 307 306 306 306 306 306 306 306 306 306 306 306 306 306 306 306 306 306 305 305 304 304 304 303 303 303 302 302 302 301 301 300 300 299 299 298 298 297 297 297 296 296
308 308 307 307 306 306 306 307 307 307 306 306 305 306 306 305 305 305 304 304 305 305 305 305 306 306 307 308 309 309 310 310 310 310 309 309 309 309 309 308 308 307 307 307 307 306 306 305 305 305 305 306 306 305 305 305 306 305 305 305 305 306 306 306 306 305 305 304 304 304 304 303 303 302 302 301 301 300 300 299 299 299 298 298 297 297 296
307 307 306 306 306 306 305 305 306 306 306 304 304 304 305 305 305 304 304 304 304 303 304 304 304 304 305 307 308 308 308 309 309 308 308 307 307 307 307 307 307 307 306 306 306 306 305 305 305 304 304 304 304 304 304 304 304 304 304 304 304 304 305 305 305 305 305 305 305 305 304 304 304 303 303 302 301 301 300 300 299 298 297 296 295 295 295
306 305 305 305 305 305 305 305 305 305 305 304 303 304 304 305 304 304 303 303 303 303 303 303 303 303 304 305 306 307 307 308 307 307 307 306 306 306 306 306 306 305 305 305 306 305 305 305 304 304 303 303 303 302 302 302 302 302 302 303 303 303 304 303 303 303 303 303 303 304 304 305 304 304 304 302 302 301 300 299 297 294 293 292 292 292 292
304 304 304 303 303 303 303 304 304 304 304 303 302 303 304 304 304 304 303 303 303 302 302 302 302 302 303 303 304 306 307 307 307 306 306 305 305 305 305 305 304 304 304 304 304 304 304 304 304 303 303 302 302 302 302 301 301 301 301 301 302 302 302 303 302 302 302 302 302 302 303 303 303 303 303 303 302 301 298 296 295 294 294 293 293 292 291
303 302 302 302 301 301 302 302 303 304 303 303 302 302 302 303 303 303 303 302 302 302 302 302 302 302 302 302 302 303 304 305 305 305 304 304 304 304 303 303 303 303 303 303 302 302 302 302 302 302 302 302 301 301 301 300 300 300 300 300 301 301 301 301 301 301 301 301 301 301 301 301 301 301 301 301 301 299 297 296 296 296 295 294 294 293 292
Wind_Speed
19 17 16 15 13 12 12 10 10 12 18 18 13 10 8 8 8 8 7 9 13 10 6 8 9 6 9 11 13 14 14 15 15 16 17 18 18 17 17 17 17 18 18 17 17 17 18 23 26 27 29 31 32 32 33 34 35 36 36 36 37 37 37 38 39 39 39 38 38 38 38 38 39 39 39 38 38 38 38 39 39 38 38 39 39 39 40
19 16 13 12 10 9 9 9 8 7 12 19 15 9 9 8 8 8 7 10 13 10 7 8 7 5 6 7 9 12 13 15 15 17 18 18 18 18 17 17 16 17 18 18 18 18 17 20 25 27 28 31 33 33 33 34 35 35 36 35 35 36 36 38 39 38 37 37 37 37 37 38 39 39 39 38 38 39 39 40 40 40 39 38 38 39 40
13 11 10 13 12 10 9 9 7 6 4 12 15 11 8 5 6 7 7 8 10 8 4 3 1 4 5 6 7 11 13 16 16 17 18 18 18 18 18 18 17 16 15 15 16 17 17 21 25 27 28 31 32 32 32 34 34 35 36 36 36 37 37 38 38 38 38 37 37 38 39 39 39 40 40 39 39 39 40 40 40 40 39 38 38 39 39
7 8 12 16 15 12 8 6 7 8 4 5 10 9 8 6 6 5 6 6 7 7 1 3 4 6 8 6 5 8 11 14 17 17 18 18 18 18 18 18 16 15 14 14 15 16 17 22 26 27 28 29 30 31 32 33 34 34 35 36 36 37 37 37 37 37 37 37 37 38 39 40 40 40 40 39 39 39 39 40 40 40 40 40 40 39 39
7 9 15 16 12 6 3 3 8 10 4 2 2 0 2 1 2 5 6 6 7 5 2 6 7 7 8 7 2 5 10 13 16 18 17 16 16 17 17 16 15 15 14 14 15 17 19 24 28 30 31 30 30 32 33 33 34 34 34 35 36 36 37 37 37 38 38 37 37 38 38 39 39 38 38 39 40 40 39 39 38 38 40 40 40 40 39
7 12 16 12 3 1 2 2 9 14 8 12 16 11 8 11 9 2 3 5 5 4 3 8 12 9 7 6 2 1 6 11 12 15 15 15 14 14 15 15 14 14 13 12 15 19 23 28 31 33 33 33 34 34 34 34 35 34 34 34 35 35 36 37 37 38 38 37 38 38 38 38 37 37 38 39 40 39 38 37 37 38 39 40 40 41 41
6 9 8 3 5 3 5 5 12 15 10 11 17 17 19 21 17 13 11 7 1 7 7 8 12 11 8 8 8 8 2 7 10 10 10 11 12 11 11 12 12 12 11 11 12 17 23 26 27 29 30 31 31 32 33 34 34 35 34 34 34 35 36 37 37 38 38 38 38 38 38 38 37 38 39 39 39 39 37 37 38 40 40 39 40 41 42
3 5 4 3 6 5 11 11 14 16 14 11 10 16 20 19 16 13 12 12 8 2 8 8 9 10 10 11 12 11 7 3 8 10 9 9 10 11 11 11 11 12 13 14 15 18 21 23 24 25 27 27 27 28 31 33 33 34 34 32 33 34 35 36 37 37 37 37 37 37 37 37 38 39 39 39 40 39 37 37 38 38 39 39 40 40 41
1 3 5 3 3 8 10 10 12 13 11 11 7 8 10 13 14 13 12 13 13 7 3 5 7 12 14 11 10 12 11 6 7 9 8 8 8 7 7 9 11 13 16 18 19 20 20 21 23 24 25 26 26 26 28 30 30 31 31 31 32 33 35 36 37 38 38 37 37 37 37 37 38 39 39 40 39 38 37 37 37 37 39 40 40 40 40
2 3 4 4 4 2 5 11 16 15 11 12 8 3 7 11 15 15 13 13 13 10 9 5 1 12 15 8 6 9 9 7 11 13 12 11 10 8 6 7 8 10 14 17 19 21 21 21 23 24 24 25 25 25 25 27 28 28 29 30 31 33 34 36 37 38 39 38 38 38 37 37 38 39 39 39 38 37 37 37 37 38 38 38 38 38 39
3 3 2 4 1 1 7 16 20 20 18 14 8 3 7 11 15 15 13 14 14 12 11 9 6 13 11 5 4 7 7 9 12 13 14 13 12 12 12 13 12 12 14 15 14 14 14 12 14 20 25 26 25 23 25 26 26 26 28 31 32 32 34 36 38 39 40 40 39 39 38 38 39 39 38 38 37 37 37 37 37 37 35 34 35 37 38
3 3 2 3 2 1 11 18 18 21 21 11 1 6 5 9 14 13 11 13 14 12 11 10 11 11 6 4 3 4 6 11 13 13 14 14 12 12 14 16 18 19 19 18 15 14 12 9 5 9 18 24 24 24 25 26 25 27 31 33 33 33 34 36 38 40 40 41 40 39 39 39 39 39 38 37 36 36 36 36 36 35 34 33 33 35 35
3 3 2 2 2 2 11 16 18 20 16 4 8 6 2 7 10 10 11 12 12 12 12 11 10 8 5 3 4 5 9 13 14 14 14 14 16 16 16 18 20 21 21 20 18 17 17 13 9 5 6 14 18 20 21 22 26 31 33 33 32 32 33 35 37 39 40 41 41 40 40 39 38 37 37 36 35 35 35 34 34 34 33 33 32 32 32
1 2 3 3 0 5 11 14 15 15 8 4 5 2 1 6 8 8 11 13 12 12 13 11 10 9 10 9 8 10 12 13 13 14 13 14 16 18 19 21 21 19 19 20 20 19 18 15 11 8 4 4 6 10 15 20 26 29 29 30 31 31 31 34 35 37 38 39 40 40 39 38 36 34 34 34 34 34 33 33 33 33 32 32 31 30 30
1 2 2 2 2 5 12 11 9 11 8 3 2 3 3 7 8 8 10 12 12 12 12 12 12 13 14 13 11 11 12 13 13 13 13 13 13 14 16 18 20 18 16 16 17 18 18 16 13 11 7 4 2 2 9 15 18 20 22 25 27 28 30 32 34 35 36 37 38 37 36 36 34 33 32 33 32 33 32 31 30 30 30 30 29 28 27
1 2 0 3 1 3 7 6 4 6 7 4 4 4 5 7 8 8 8 10 12 12 11 12 13 14 14 14 12 11 11 12 12 12 13 12 11 12 13 15 17 17 14 12 14 16 17 17 16 14 11 8 6 6 8 9 10 14 19 23 25 26 28 31 32 33 35 35 36 36 35 35 34 32 31 31 31 32 32 30 28 27 27 27 27 25 24
1 3 2 3 3 1 4 6 6 6 8 9 8 7 7 7 8 7 8 9 12 13 12 11 12 13 13 13 13 11 9 9 10 10 10 11 11 11 13 15 17 16 13 12 14 15 17 18 17 16 14 10 8 9 10 9 9 12 18 22 24 26 27 28 30 31 31 32 34 34 33 34 33 31 31 30 29 29 30 29 28 26 25 26 25 24 22
3 4 3 5 6 3 6 7 7 7 8 9 9 8 8 8 7 7 8 9 11 12 12 11 11 11 12 12 12 12 10 8 8 9 8 9 10 11 11 13 14 15 15 15 14 14 16 17 17 17 16 13 11 10 9 8 10 13 17 22 25 26 26 27 28 28 29 29 31 31 32 33 33 32 32 31 29 29 29 28 27 26 25 25 24 23 21
3 3 6 9 7 5 6 6 7 8 8 9 9 8 7 8 8 8 9 10 9 10 11 11 10 10 11 12 11 10 10 9 8 8 9 8 9 10 10 11 13 14 13 11 10 10 12 15 17 17 16 14 13 12 9 6 10 15 18 23 25 25 25 25 26 27 28 27 27 27 28 30 31 31 31 31 29 28 28 27 25 24 23 23 22 21 19
1 3 9 10 3 4 6 5 5 6 8 8 10 9 7 8 9 9 10 10 9 9 10 10 10 10 11 11 10 9 9 8 7 7 8 8 8 10 12 12 13 12 11 9 8 9 10 14 16 16 15 15 14 12 10 7 8 14 19 22 24 24 24 25 25 26 26 26 26 25 23 23 23 23 24 27 27 28 28 27 25 24 22 22 23 22 21
3 4 7 7 2 3 5 6 4 4 5 6 5 8 9 9 9 10 9 9 9 9 8 8 9 10 10 10 9 9 8 7 7 6 6 7 8 9 10 11 11 10 10 9 8 9 10 12 14 14 14 14 13 11 9 8 5 11 17 19 21 22 23 24 24 24 24 25 26 25 22 19 17 15 15 18 21 24 26 28 27 26 25 25 25 23 22
3 3 3 5 3 4 4 3 3 3 2 5 5 5 8 9 9 9 8 7 8 9 8 8 8 9 9 9 9 8 7 6 6 6 5 5 6 7 8 9 9 9 8 7 7 8 9 10 11 12 12 12 12 10 8 6 4 7 14 16 18 20 22 22 23 23 24 25 26 26 24 23 20 16 11 11 15 18 21 23 25 26 26 26 25 25 24
4 5 6 5 3 4 5 6 5 3 2 3 6 5 5 6 8 8 6 6 7 8 8 8 8 7 7 8 8 8 7 7 7 8 7 6 5 5 7 8 8 7 6 6 7 9 10 8 8 9 9 10 11 10 8 6 4 5 11 15 15 16 18 20 22 25 26 26 25 26 25 25 25 22 19 14 10 11 14 17 19 21 22 22 22 25 25
8 9 8 5 3 3 6 8 8 5 2 3 4 4 4 4 6 8 7 5 6 7 7 8 9 8 8 7 8 8 7 8 9 10 11 10 8 6 7 8 6 5 4 6 7 8 8 7 6 5 5 6 8 9 8 7 5 5 9 13 14 14 15 18 22 25 26 26 27 27 26 26 27 28 27 26 23 19 16 16 17 17 18 19 19 21 23
9 9 8 6 4 5 7 7 6 4 4 4 4 3 5 5 6 8 8 7 5 6 7 8 9 11 10 7 7 8 7 7 10 12 11 11 12 10 9 8 7 5 5 6 6 5 4 4 4 3 4 4 4 5 5 6 7 7 9 12 14 15 17 20 22 24 26 27 28 28 28 28 28 29 30 30 28 27 26 25 24 23 22 21 22 22 21
12 11 9 9 9 7 6 6 4 3 5 5 3 3 4 5 5 6 8 8 6 7 7 7 9 13 13 10 8 9 8 8 12 13 11 10 11 11 11 9 7 5 3 3 4 3 2 2 2 3 4 4 2 1 3 6 9 10 11 13 15 18 21 24 24 24 25 26 26 27 28 28 28 27 29 31 32 30 27 25 25 24 24 23 22 22 22
14 12 9 11 12 9 6 5 3 2 4 4 2 1 2 3 4 4 5 8 8 9 10 11 11 12 14 13 12 12 11 10 11 11 10 10 10 10 10 9 7 5 3 1 2 3 2 2 3 5 6 6 4 4 6 8 12 15 16 16 17 19 22 25 26 25 25 26 27 26 26 26 27 28 27 28 29 28 26 24 23 22 22 22 21 20 21
14 12 10 11 14 10 6 4 4 5 5 5 4 3 2 3 4 3 3 5 7 7 9 12 13 10 9 11 11 10 9 9 8 7 8 12 13 12 10 9 8 5 3 2 2 1 1 1 1 3 5 5 4 6 8 10 13 17 19 20 21 21 22 24 26 27 26 26 27 27 27 27 28 29 28 26 26 26 26 25 25 24 23 23 22 21 21
13 13 12 13 15 11 6 5 7 8 6 5 5 4 3 4 4 4 2 3 5 5 5 9 11 9 8 9 9 6 5 6 6 7 9 14 15 12 8 7 5 4 3 2 2 1 2 2 2 2 4 5 6 8 10 11 13 16 19 22 24 24 24 24 26 27 27 26 26 28 30 29 29 28 27 26 26 27 26 25 25 25 24 25 25 23 22
10 11 12 13 12 9 9 9 9 8 7 5 5 5 3 3 4 5 5 5 5 4 4 6 7 6 6 8 8 7 7 7 8 8 11 14 12 8 5 4 4 5 5 4 2 2 3 4 3 3 2 4 7 10 12 13 15 16 17 20 22 23 25 28 28 28 28 28 27 28 28 28 27 27 27 26 26 25 25 24 24 24 24 24 24 24 22
7 9 12 13 10 8 9 8 7 6 5 4 4 5 3 2 2 4 6 6 5 4 3 3 3 4 5 7 9 9 7 7 10 13 16 18 17 13 10 7 5 4 4 4 3 3 4 5 5 5 5 6 8 11 13 15 16 16 17 19 21 22 25 29 30 29 29 29 29 28 27 26 27 27 28 27 26 25 24 24 24 24 23 23 22 22 22
4 6 8 9 8 8 8 6 5 6 5 3 3 4 3 3 3 3 4 4 4 2 3 4 4 5 5 6 8 9 10 14 17 18 18 19 19 19 17 14 11 9 8 8 7 5 4 4 5 6 9 12 13 14 14 15 16 16 17 20 23 24 25 28 30 29 28 28 30 29 28 26 26 26 25 26 26 25 25 24 24 23 23 23 22 20 19
4 3 5 6 7 8 7 4 4 4 3 3 4 5 5 4 2 2 1 0 3 4 4 4 4 6 8 12 13 13 13 16 17 17 16 16 18 20 19 17 16 15 14 15 14 11 7 4 6 8 11 14 16 16 17 17 17 18 18 21 24 26 26 28 31 31 28 26 26 27 27 25 24 23 23 24 25 26 25 24 23 22 22 21 20 19 16
5 3 3 6 7 7 5 4 3 3 3 4 3 2 1 1 2 4 5 5 5 5 5 5 5 10 15 17 16 15 14 12 11 10 11 14 17 20 21 20 20 20 21 23 24 22 17 7 6 11 11 13 16 19 21 20 19 20 21 23 26 27 27 28 30 31 29 26 25 27 27 26 25 25 24 24 25 25 24 23 23 22 21 20 18 17 16
10 9 5 0 4 5 4 4 3 1 1 3 4 6 6 6 6 7 7 7 8 8 7 5 9 16 20 18 16 15 14 11 10 11 13 15 18 21 23 23 23 23 25 29 31 28 24 16 8 11 13 14 17 21 24 24 24 25 27 27 28 29 29 30 30 30 29 28 28 29 29 28 28 28 28 27 27 27 26 25 24 23 22 20 18 17 16
17 13 8 6 8 9 9 8 8 8 8 8 8 8 9 11 11 10 9 11 13 12 9 8 14 20 19 16 15 15 13 13 15 17 17 16 18 23 26 25 23 22 23 27 32 31 25 20 14 10 17 21 23 25 28 30 29 29 30 31 31 30 30 31 31 29 29 29 30 29 29 30 30 29 29 29 29 28 28 27 25 24 23 22 21 20 19
23 17 11 11 14 15 14 13 14 14 14 13 13 12 13 14 16 15 13 14 17 16 12 13 17 18 16 16 18 19 17 17 19 20 19 18 21 27 28 25 23 21 18 19 27 31 28 22 17 13 17 25 28 29 31 32 32 30 29 30 30 30 30 30 30 29 29 29 29 29 30 31 30 29 29 29 28 27 26 25 24 23 23 23 23 23 22
27 24 21 20 19 17 18 20 21 21 19 18 17 18 18 19 19 18 16 17 19 17 15 17 20 20 18 19 20 20 20 20 22 24 23 22 24 28 27 23 22 20 17 19 27 34 32 27 23 20 16 18 26 31 34 35 34 33 31 30 29 29 29 29 28 28 27 27 28 29 29 30 29 28 28 27 27 26 25 24 24 23 23 23 23 23 22
24 24 24 24 22 21 23 25 25 23 21 20 18 19 22 24 22 18 17 20 21 19 17 19 21 21 20 19 18 18 19 21 23 25 25 24 26 27 26 25 24 23 24 31 38 39 36 34 32 29 24 18 18 26 34 39 39 37 35 32 30 29 28 28 28 27 27 27 28 28 28 27 27 27 26 26 26 25 24 24 25 25 24 25 25 24 23
16 18 21 22 21 21 22 22 22 24 25 23 21 20 22 24 21 17 16 20 22 22 21 21 20 19 18 17 16 18 20 23 25 26 25 26 26 24 22 25 28 28 30 38 42 41 41 42 40 36 32 26 20 18 24 33 38 38 37 35 32 30 28 27 27 26 26 26 27 27 26 26 26 26 25 25 25 25 24 24 25 24 24 26 26 25 24
15 18 21 22 22 22 21 21 21 24 27 28 25 23 22 21 18 15 15 18 20 22 24 24 21 19 19 18 18 19 22 25 29 30 29 28 25 19 15 18 25 28 31 38 41 40 41 44 43 40 37 32 26 22 22 25 30 34 35 35 34 32 30 28 28 26 25 25 25 25 24 24 25 25 25 25 25 24 24 24 25 26 26 26 26 25 24
16 18 18 17 18 21 22 22 21 22 24 26 27 27 25 23 20 17 16 18 19 21 23 24 23 21 21 20 20 22 23 26 30 33 34 32 27 20 15 17 24 28 31 37 41 41 41 42 42 41 38 35 32 30 29 27 28 31 33 34 35 34 31 30 28 26 25 26 25 24 26 28 28 28 28 28 27 25 24 24 25 26 27 27 25 24 24
15 16 15 14 15 18 20 21 20 19 20 22 24 25 25 25 25 23 21 21 21 20 21 22 22 21 21 21 20 20 21 23 26 30 32 33 32 29 23 22 25 30 33 36 39 40 40 40 40 40 38 36 35 35 35 33 30 30 32 34 35 35 33 31 30 28 27 27 26 26 29 32 33 31 31 31 29 28 28 27 26 25 25 25 24 24 23
13 14 14 14 16 16 17 17 17 17 17 19 22 24 24 24 24 24 23 23 23 23 22 21 20 19 19 20 19 17 16 18 21 23 24 24 26 29 29 27 27 31 35 38 38 38 38 38 39 40 40 38 37 37 38 35 32 31 33 34 35 36 35 33 31 29 28 27 26 26 28 30 30 29 29 29 28 28 28 28 26 26 26 25 25 25 24
13 14 14 14 15 15 15 15 15 14 15 17 21 23 23 23 23 24 23 23 23 23 23 22 21 19 18 18 19 18 18 19 22 24 22 17 15 19 26 29 28 29 32 35 37 37 37 37 37 38 38 38 37 37 38 36 34 33 34 34 34 34 34 32 31 30 29 28 28 27 27 28 28 28 28 28 28 27 27 27 27 27 27 27 27 27 27
13 15 15 15 14 15 16 16 17 17 17 16 16 18 20 22 22 23 23 23 23 23 23 23 22 22 20 18 17 16 17 20 24 27 28 24 21 22 25 27 28 29 31 33 34 34 35 36 37 37 37 37 36 36 36 35 35 34 33 32 31 30 30 29 29 29 28 28 28 28 28 28 28 28 28 28 28 27 27 27 28 27 27 28 29 29 29
12 13 14 15 15 15 15 16 17 17 16 12 10 11 15 19 20 22 23 24 24 24 23 23 23 22 22 21 19 16 15 16 18 22 25 26 25 25 24 25 25 26 28 29 29 29 31 33 34 35 35 35 35 34 33 33 32 32 31 30 29 27 26 25 25 26 26 26 26 26 26 27 27 27 27 28 27 27 27 27 27 27 27 28 28 28 28
12 12 13 14 14 14 14 14 13 12 11 11 11 12 14 16 18 21 22 23 23 23 23 23 23 23 23 23 22 20 19 17 15 16 20 23 24 24 24 24 24 25 27 28 27 27 28 29 31 32 32 33 33 32 32 31 31 30 29 28 28 27 26 24 23 22 22 23 23 23 23 24 24 25 26 26 26 26 27 27 26 26 26 26 25 25 24
13 13 14 14 14 13 13 12 10 9 10 12 13 14 15 15 17 18 19 20 20 20 20 21 23 24 25 25 24 23 23 22 20 20 22 25 26 25 25 24 23 24 26 28 27 26 26 27 29 29 30 30 30 30 30 29 29 29 28 28 28 28 28 28 26 25 23 21 20 19 19 19 20 21 23 24 25 25 25 24 24 24 24 24 24 23 22
14 14 14 14 14 14 13 12 9 9 11 12 13 15 16 15 14 14 16 17 17 17 18 21 22 23 24 25 24 23 24 25 25 25 25 26 26 25 25 25 25 25 26 26 25 25 24 25 25 26 27 28 28 28 28 28 28 28 28 28 29 29 29 29 28 27 25 24 23 22 20 19 19 19 20 21 22 22 22 22 23 23 24 24 24 23 22
15 14 14 15 15 16 17 15 11 9 11 12 13 15 16 15 13 13 15 17 16 16 16 19 21 23 24 24 25 24 23 23 23 24 25 24 24 24 24 25 25 26 26 26 26 25 24 24 24 25 26 26 26 26 26 27 27 28 29 29 29 29 28 27 27 27 26 25 25 25 24 23 22 21 21 21 21 21 21 22 22 23 23 23 23 21 21
16 17 18 19 20 21 21 21 18 12 10 12 14 17 19 18 17 16 16 18 18 18 17 17 19 21 23 24 24 24 24 23 23 23 23 23 23 23 24 24 25 25 25 25 25 25 25 25 25 25 25 25 25 24 24 25 26 27 28 29 29 28 27 26 26 26 25 25 24 24 23 23 24 24 24 24 23 22 21 21 21 21 22 22 21 20 19
Wind_Direction
301 288 281 271 269 265 256 274 284 232 195 184 185 192 192 161 156 209 227 207 222 240 242 247 250 193 163 167 170 173 172 173 173 172 173 175 177 180 182 183 184 184 183 182 183 184 185 186 187 188 191 194 196 196 196 196 196 196 196 195 197 197 198 202 204 206 206 206 207 208 209 211 213 214 215 216 217 218 218 219 219 219 220 220 220 220 222
298 288 289 293 301 300 277 274 295 276 214 197 189 184 188 181 187 201 184 193 222 231 216 229 240 204 174 156 159 167 166 169 173 172 174 178 178 179 183 185 186 187 186 184 183 181 183 186 187 187 189 192 194 195 196 196 196 196 195 195 197 198 200 203 205 206 206 206 207 208 209 211 213 214 215 216 217 217 218 219 219 220 220 221 221 221 222
294 288 310 325 326 318 296 285 303 333 267 209 196 185 185 190 211 205 163 176 231 252 228 229 225 133 107 98 143 165 170 172 172 175 178 179 179 181 184 186 186 186 187 186 183 182 184 187 188 187 189 191 193 194 195 195 196 195 194 195 197 199 202 204 205 205 206 206 206 207 209 211 213 214 215 215 216 218 218 219 219 220 220 221 221 222 223
286 305 336 331 318 311 310 320 341 7 32 207 209 192 173 178 206 191 141 166 233 259 269 60 62 92 88 76 126 163 174 174 170 176 184 183 181 183 187 188 184 181 183 185 185 186 187 188 189 189 189 189 191 193 194 195 195 195 195 196 198 200 202 204 205 205 206 206 206 207 209 210 212 214 214 215 217 218 218 219 219 219 220 220 221 222 223
283 309 324 317 314 329 334 351 359 354 359 58 16 6 153 142 193 171 170 202 221 236 177 106 85 77 84 84 106 172 176 178 176 177 183 185 185 186 187 186 179 175 178 181 186 190 188 188 191 192 190 189 191 194 194 194 195 195 195 197 198 200 202 204 204 205 206 206 207 208 210 211 213 213 214 216 217 218 219 219 219 220 221 221 221 222 223
287 303 311 307 309 95 247 310 18 5 17 73 69 52 30 19 13 356 246 232 190 161 155 131 115 97 91 92 22 273 165 170 178 178 178 181 185 187 187 184 179 177 178 179 184 189 190 190 192 193 193 194 195 195 193 193 195 195 196 197 198 200 202 203 205 205 205 206 207 209 210 211 212 213 214 217 218 219 220 220 220 221 222 222 222 222 223
278 301 316 275 189 215 298 351 24 16 20 71 72 54 35 25 13 359 346 329 221 158 154 126 112 108 93 71 31 5 57 141 150 156 162 168 173 179 181 178 172 171 173 174 180 189 191 191 191 191 194 197 196 195 194 194 195 197 197 197 198 199 201 202 204 204 204 205 207 208 209 210 211 213 215 217 218 219 219 220 221 222 223 223 224 223 223
279 321 329 203 206 310 346 6 13 10 2 355 26 46 34 17 7 360 356 350 337 174 148 126 113 108 85 60 35 3 353 79 121 130 138 150 161 169 172 172 171 172 174 177 182 187 188 187 188 191 195 195 193 192 194 195 196 197 198 199 199 199 200 201 203 203 203 204 206 207 208 208 210 212 214 216 217 217 218 220 222 224 224 225 226 225 225
295 330 296 275 329 342 352 360 348 350 347 320 328 61 40 7 5 1 2 4 350 347 95 132 130 94 67 49 26 360 352 24 82 97 104 114 125 137 150 155 158 164 171 175 178 179 181 184 189 193 194 192 190 190 193 196 197 198 199 201 200 199 200 201 202 202 203 203 204 206 207 207 209 212 213 216 216 216 216 219 221 223 224 226 226 227 226
353 358 313 328 8 350 335 334 323 322 319 288 273 71 45 8 2 357 2 10 358 2 15 339 104 82 65 45 11 351 349 31 68 76 73 73 80 81 87 104 115 131 149 161 170 176 179 185 192 194 192 189 189 189 192 196 197 199 202 204 203 201 200 201 201 201 203 203 203 205 206 207 209 212 213 215 216 215 216 218 221 223 225 226 228 228 228
325 350 326 320 321 161 336 328 318 319 318 288 255 79 40 1 350 349 1 10 5 15 19 360 45 80 76 58 11 345 355 43 63 72 69 64 66 66 67 73 77 88 109 124 136 147 154 165 183 192 192 189 188 190 194 197 198 201 205 207 206 203 201 201 201 202 203 203 204 205 205 207 210 212 213 215 215 215 216 219 222 225 226 228 229 230 231
285 298 288 299 267 302 329 321 312 314 314 302 132 81 24 341 339 341 359 15 13 14 22 32 53 69 87 103 49 1 37 61 61 63 65 63 61 61 61 64 67 72 80 85 82 76 71 72 105 177 190 190 189 192 195 196 199 205 209 209 208 206 203 201 201 202 202 203 204 205 206 208 210 212 213 214 214 214 216 218 222 224 226 228 230 232 233
267 283 286 283 258 333 325 312 308 313 315 351 76 79 306 321 338 346 1 17 21 18 26 44 51 44 48 74 71 54 61 65 60 57 60 59 57 55 52 54 58 61 61 59 57 52 46 46 53 75 166 186 193 197 196 197 203 209 211 211 210 207 204 201 201 202 202 203 204 206 207 209 210 211 212 212 212 213 214 217 220 223 224 226 230 233 234
249 269 288 287 296 360 333 313 314 330 348 72 67 37 312 343 351 1 11 18 22 23 32 43 46 39 32 29 42 58 61 64 62 57 56 54 52 49 46 46 49 51 49 46 44 40 36 35 33 31 51 140 182 199 203 208 212 212 212 211 210 207 204 202 201 202 202 203 204 206 207 208 208 209 211 211 211 212 213 215 217 220 222 225 228 231 234
191 208 266 343 45 344 328 322 337 2 21 64 327 328 25 17 5 9 18 20 21 23 30 36 36 38 34 27 31 44 54 62 63 59 57 54 50 46 42 40 43 47 47 43 40 37 32 27 20 10 7 13 14 238 226 228 226 222 218 213 210 207 204 202 202 202 202 203 203 204 205 206 206 207 208 209 210 210 211 212 215 218 221 223 226 229 232
47 183 228 32 61 313 336 356 37 24 6 355 344 357 28 27 14 12 17 18 18 21 27 29 31 34 33 27 26 32 46 57 59 57 57 54 49 46 41 36 39 42 41 40 43 41 34 27 20 9 357 343 322 291 274 268 250 231 224 218 211 206 203 202 201 201 201 201 202 202 203 203 204 204 205 205 206 208 209 210 212 215 218 219 221 224 226
296 257 287 316 277 278 41 50 56 30 6 6 13 18 27 27 14 10 16 14 12 16 22 25 30 31 27 24 22 23 33 51 59 60 59 56 54 50 40 35 38 43 45 45 43 38 31 26 20 12 5 353 328 303 292 286 264 236 225 218 212 208 204 202 200 199 198 199 200 201 201 201 201 201 201 201 202 204 206 207 209 212 214 215 217 218 216
288 268 297 326 325 18 70 78 71 48 19 7 9 14 23 22 11 14 21 14 7 9 13 21 28 25 19 19 19 16 17 30 50 60 58 56 59 56 45 40 46 55 59 53 44 35 28 20 14 10 10 9 359 340 316 280 252 236 223 214 211 208 205 201 199 196 194 195 196 198 198 199 200 200 199 199 199 200 202 204 207 209 211 211 212 212 210
319 307 327 334 344 37 64 72 77 65 40 14 3 5 17 13 9 19 21 10 5 7 7 12 20 19 16 17 14 12 11 9 19 43 51 48 51 49 45 49 57 62 63 57 46 38 28 16 10 6 6 8 5 356 342 291 243 229 219 210 206 204 202 199 195 192 190 189 190 192 194 196 198 199 199 198 198 198 199 201 204 207 207 206 206 205 201
305 287 300 309 319 89 70 60 69 68 58 31 2 352 4 13 17 25 17 1 358 8 6 5 9 10 12 15 11 10 12 2 359 26 45 45 41 41 43 53 62 61 57 52 47 37 25 16 11 5 2 360 356 352 349 327 253 222 211 205 202 199 197 193 190 188 187 183 180 180 183 187 190 192 195 197 199 200 201 202 203 203 203 203 204 203 197
295 274 293 315 352 53 41 48 57 57 77 79 31 355 355 9 22 27 16 355 350 0 4 4 7 5 3 7 8 6 8 6 359 9 37 49 46 44 49 59 68 65 53 44 37 29 22 14 7 360 356 354 348 342 343 338 282 217 203 198 195 192 190 187 185 182 177 174 172 169 165 162 160 165 181 194 198 201 204 206 207 208 206 205 205 203 193
280 250 295 345 346 303 317 360 30 18 50 102 96 43 6 5 13 16 8 353 346 351 355 1 9 4 354 355 2 1 359 1 359 1 26 47 49 55 64 68 67 63 51 36 20 14 14 11 2 353 346 344 339 330 325 330 303 213 193 186 185 184 182 179 176 170 165 164 165 161 154 146 139 131 137 171 190 197 202 205 206 209 210 207 203 199 189
273 274 293 323 327 277 289 315 324 323 3 78 93 80 41 11 0 356 353 350 347 345 345 353 4 3 352 350 355 353 345 345 351 2 13 20 27 52 75 77 68 56 45 27 11 4 2 3 360 349 340 336 332 322 307 300 290 214 184 176 173 174 173 170 166 162 159 157 155 151 146 142 136 123 108 104 125 161 181 189 194 199 201 196 193 193 187
283 286 288 306 324 297 299 309 306 301 346 62 75 83 79 40 358 343 338 340 345 344 342 347 354 352 346 345 346 344 339 336 341 353 3 4 7 31 66 75 70 58 41 24 14 9 6 6 1 351 345 340 330 317 298 277 261 216 179 168 162 157 156 157 157 156 155 151 147 143 138 135 133 126 113 98 90 95 115 137 150 160 167 165 163 168 171
273 273 277 285 291 289 290 291 290 308 357 23 41 62 65 47 13 349 336 331 341 354 353 347 341 338 337 339 342 339 334 331 337 345 354 358 3 17 36 44 43 39 27 16 17 22 21 14 7 1 5 5 338 304 273 242 224 204 177 161 154 148 145 145 147 148 148 145 143 142 139 135 132 129 122 114 104 97 98 105 113 118 125 133 137 139 141
267 269 279 285 282 274 272 273 282 340 356 360 30 66 56 44 33 5 339 327 334 353 351 337 328 329 331 331 332 331 326 330 340 348 353 356 4 14 20 18 16 13 3 7 32 45 33 21 31 33 35 40 43 205 196 186 181 174 163 154 150 149 148 146 144 143 143 143 142 141 139 137 134 131 128 127 123 118 111 106 106 108 111 118 126 129 128
264 265 271 278 275 260 229 226 247 314 335 338 356 34 36 50 61 40 351 332 332 337 335 326 321 323 324 323 325 328 327 328 340 351 353 352 360 9 7 355 344 336 327 355 89 88 67 45 39 37 40 45 59 107 129 139 143 143 142 142 141 142 146 146 143 141 141 142 141 139 138 136 134 131 130 129 127 126 123 118 113 110 111 116 122 125 125
254 250 244 248 255 249 224 232 289 314 319 311 305 303 333 27 48 54 22 333 318 313 317 318 316 314 313 314 317 322 323 326 337 351 350 345 345 348 350 345 330 308 271 215 190 206 216 157 58 46 52 58 78 112 119 120 123 126 130 133 133 134 137 139 139 139 140 140 140 138 136 134 133 131 129 128 125 121 119 117 115 113 114 117 119 119 117
245 243 236 235 242 245 245 266 286 290 290 299 308 315 340 7 7 3 349 305 291 288 301 310 309 304 299 300 305 313 317 316 319 326 336 340 338 337 349 0 345 310 272 245 247 254 215 187 161 93 77 89 112 125 124 119 116 117 122 128 130 131 133 135 135 136 135 135 135 135 133 132 131 129 127 126 124 120 117 115 115 115 118 121 124 122 118
238 239 239 241 242 238 235 242 252 255 260 275 289 295 320 357 349 332 324 309 291 284 289 293 295 297 296 294 295 296 296 303 323 346 1 5 1 358 10 17 357 344 344 345 1 75 120 140 142 127 110 117 128 132 130 123 117 112 113 118 124 129 132 133 132 130 130 130 130 130 130 129 127 125 124 123 122 120 117 116 116 118 122 126 127 128 127
238 230 234 242 243 233 230 229 226 230 237 244 259 274 300 338 321 307 308 306 299 296 311 330 323 306 300 302 306 311 326 358 20 31 38 39 38 38 42 42 33 28 36 44 55 78 105 122 130 137 143 144 143 139 132 123 116 112 109 110 114 120 125 128 127 126 126 126 124 123 122 123 123 125 127 127 126 123 119 116 115 116 120 121 121 126 130
271 235 230 236 237 236 233 218 207 224 237 238 254 268 263 250 252 266 280 295 313 340 26 33 353 319 330 3 12 24 45 50 44 41 42 42 41 43 48 51 49 42 45 59 68 78 102 121 130 141 147 151 152 148 140 129 119 111 106 104 105 108 113 117 119 120 120 120 120 119 118 120 123 126 128 128 127 125 121 118 115 114 115 114 114 121 128
311 259 228 219 220 230 230 202 188 217 236 234 239 244 242 239 234 203 186 45 21 25 33 28 360 0 34 48 47 48 56 57 48 40 36 35 38 42 45 51 53 45 36 39 46 50 61 110 150 149 140 141 144 141 136 131 121 112 107 104 102 101 103 107 111 113 111 110 112 115 116 116 116 117 121 126 127 124 120 116 113 111 109 108 110 116 119
350 329 257 213 200 200 196 172 168 213 251 265 270 277 305 350 72 96 95 83 61 43 30 21 32 51 59 58 54 52 57 60 53 39 27 31 41 46 47 51 56 52 43 39 37 30 22 29 142 151 137 129 130 129 125 122 114 107 105 104 100 97 97 100 103 105 104 102 104 105 105 103 101 101 107 116 117 113 107 103 101 100 99 101 107 112 113
12 7 358 191 161 154 152 145 136 145 319 1 25 36 38 38 50 64 71 76 73 61 48 51 68 71 67 62 57 56 57 62 65 54 42 41 47 52 52 51 50 48 44 38 33 25 20 26 72 135 139 128 122 121 119 115 107 100 98 97 96 94 94 95 96 97 97 98 98 96 95 94 93 95 99 103 102 98 95 93 92 92 93 95 101 108 109
18 13 19 52 69 69 70 72 72 70 63 53 50 49 45 42 40 40 49 66 69 66 68 80 81 75 69 64 64 62 58 61 66 61 51 48 54 57 55 49 43 43 41 33 26 23 23 27 43 96 124 121 114 113 114 111 106 101 98 96 94 93 92 92 92 91 92 93 94 93 92 93 92 92 95 95 94 93 92 90 88 89 89 91 96 99 99
21 19 31 53 58 59 61 63 66 70 70 64 56 51 47 42 36 32 40 58 65 66 72 80 80 78 76 73 73 69 62 62 66 63 57 55 60 61 57 47 39 40 39 29 24 25 26 29 38 70 107 114 112 111 112 111 107 101 97 95 94 92 91 90 89 88 89 90 91 91 91 91 89 87 89 90 90 90 90 89 88 87 87 88 91 92 90
23 23 34 47 50 53 58 61 61 65 69 68 60 53 50 46 39 33 38 52 58 62 70 77 80 81 79 75 73 70 64 63 66 65 60 57 59 62 59 49 42 42 43 40 38 35 34 38 46 51 65 95 110 114 115 115 111 103 97 93 92 91 90 89 88 87 87 88 89 89 88 88 87 85 85 86 86 87 87 87 87 86 84 85 87 86 84
27 25 31 41 46 48 52 54 51 51 59 66 64 57 54 52 46 40 45 54 56 57 64 72 76 77 74 70 70 69 65 65 67 66 62 58 59 64 64 57 51 52 56 56 52 46 42 46 49 43 38 53 88 107 114 117 115 110 103 98 94 91 90 89 89 88 87 87 87 86 86 86 86 86 85 85 85 85 84 84 84 83 82 83 84 82 81
30 26 27 34 39 41 45 48 45 44 49 59 65 64 62 58 51 46 51 58 60 61 63 65 69 70 68 66 68 69 68 69 69 68 66 61 58 59 60 54 48 51 60 63 59 53 48 48 47 42 39 43 54 75 98 110 113 111 108 104 99 95 93 91 90 89 88 87 87 87 86 87 87 86 86 85 84 83 82 82 81 80 79 80 81 80 79
35 34 33 36 38 38 39 42 44 43 44 47 49 53 59 62 59 54 57 62 63 63 63 63 65 67 66 66 70 71 72 72 71 69 67 63 55 50 48 46 44 47 59 67 68 64 57 54 49 43 39 41 46 51 65 85 97 102 102 101 98 95 92 90 88 87 87 87 87 88 88 88 87 86 86 85 83 82 81 81 80 79 79 79 79 78 78
40 40 41 42 44 43 41 40 40 43 44 44 41 40 44 50 51 51 56 62 65 68 67 66 66 67 66 67 68 68 67 69 70 70 69 66 61 56 49 44 45 52 60 66 70 70 67 63 60 55 48 43 46 51 57 64 75 84 90 92 92 91 89 87 86 85 86 86 87 89 91 92 90 88 88 87 84 83 81 80 79 79 79 78 78 77 77
47 46 45 45 46 48 48 44 40 38 41 44 44 43 43 45 45 44 45 48 54 60 66 67 66 65 65 64 63 62 62 65 68 70 71 70 67 66 62 52 50 57 64 66 67 69 69 68 68 68 64 57 55 56 57 58 62 71 78 83 84 85 85 84 84 84 84 84 85 88 92 93 92 90 89 87 85 83 82 81 79 79 79 78 77 77 75
47 48 50 50 49 51 54 53 48 41 38 40 44 46 47 46 46 44 43 44 46 49 53 57 58 60 62 64 63 59 60 64 69 72 75 72 66 65 65 62 58 60 64 66 67 68 69 70 72 74 74 70 66 64 63 60 59 62 68 73 76 79 80 80 80 81 82 84 85 87 89 89 89 88 87 86 84 82 81 80 79 79 78 78 77 77 75
44 47 52 55 54 54 55 56 56 55 51 47 45 44 44 44 45 46 46 46 46 46 46 47 48 48 54 62 67 66 67 72 75 76 77 76 69 64 66 67 67 66 68 70 71 70 71 74 76 77 76 73 71 70 69 68 65 63 64 66 70 74 77 78 80 80 81 82 84 85 85 86 86 86 86 86 85 84 83 81 79 78 76 74 73 73 72
48 50 53 54 54 55 57 58 59 59 58 54 48 45 44 44 46 47 48 48 48 46 45 46 49 50 51 57 64 69 72 75 77 77 78 81 82 76 71 69 70 71 73 74 75 74 75 78 80 80 78 75 72 70 69 69 71 72 71 71 71 72 75 77 80 82 82 82 83 84 85 86 87 87 87 87 87 86 86 84 81 78 76 75 73 71 69
51 51 51 53 55 57 59 60 59 55 53 50 45 43 46 49 49 49 51 52 51 48 46 48 50 52 54 57 60 65 70 72 74 77 80 83 83 81 77 73 71 71 71 70 71 73 75 78 81 82 82 80 78 76 73 72 74 75 75 75 76 76 78 80 82 85 86 86 86 86 87 88 88 89 89 88 88 87 86 84 82 79 76 75 72 70 67
48 46 44 47 50 51 54 57 56 52 49 49 47 45 50 57 57 54 54 55 54 50 48 48 48 48 53 58 64 70 77 79 75 74 78 80 81 80 81 81 79 76 73 72 71 73 75 77 80 82 83 82 82 81 80 80 80 79 77 77 78 79 81 84 87 90 92 92 92 91 92 92 92 91 90 89 89 88 86 84 82 80 77 74 72 69 66
53 49 44 42 40 38 39 43 48 51 53 53 51 50 56 63 64 58 56 58 58 53 49 47 47 47 52 58 64 70 79 85 85 82 81 81 81 80 80 81 81 81 80 79 78 79 80 81 81 82 82 82 81 81 81 81 80 80 80 79 80 82 84 86 87 89 90 92 92 93 94 96 97 98 97 95 93 92 89 87 85 83 80 76 73 69 66
54 51 45 38 34 31 28 28 40 62 70 64 58 59 64 67 66 62 59 60 60 58 53 50 49 49 52 57 62 68 76 83 86 85 84 83 81 80 80 80 79 80 81 80 79 79 80 80 80 81 80 79 79 80 80 79 79 79 79 80 82 84 86 87 87 87 86 86 87 90 94 97 100 105 108 106 101 97 95 93 91 87 82 78 74 70 65
49 46 43 39 35 33 30 27 34 64 84 79 68 67 69 69 66 64 61 57 55 54 53 52 51 51 53 56 60 66 74 80 83 83 82 82 81 81 82 82 82 81 81 81 79 78 77 77 79 82 83 82 81 80 79 79 78 78 78 79 82 84 86 88 88 87 87 88 90 92 94 96 97 101 106 109 107 103 99 95 92 87 81 76 71 66 62
54 48 45 42 36 33 31 29 30 45 81 91 80 72 71 71 67 61 55 51 48 47 47 46 46 47 51 56 60 65 71 78 81 81 81 80 80 80 82 83 83 83 83 82 81 81 81 81 82 84 85 85 84 83 82 81 80 79 79 80 81 82 84 85 86 86 86 87 88 87 87 88 91 93 97 102 105 104 100 95 90 83 76 71 66 61 56